Weather History for Sheridan, WY

Change the Weather History Date:

Thursday, March 20, 2014

  Actual Average Record
Temperature  
Mean Temperature 43 °F 37 °F  
Max Temperature 53 °F 50 °F 78 °F (1910)
Min Temperature 32 °F 23 °F -13 °F (1913)
Degree Days  
Heating Degree Days 22 28  
Month to date heating degree days 635 630  
Since 1 July heating degree days 6385 6165  
Cooling Degree Days 0 0  
Month to date cooling degree days 0 0  
Year to date cooling degree days 0 0  
Moisture  
Dew Point 20 °F    
Average Humidity 48    
Maximum Humidity 70    
Minimum Humidity 26    
Precipitation  
Precipitation 0.00 in 0.04 in 0.61 in (1946)
Month to date precipitation 1.03 0.57  
Year to date precipitation 2.88 1.67  
Sea Level Pressure  
Sea Level Pressure 29.89 in    
Wind  
Wind Speed 13 mph (West)    
Max Wind Speed 28 mph    
Max Gust Speed 33 mph    
Visibility 10 miles    
Events      
T = Trace of Precipitation, MM = Missing Value Source: NWS Daily Summary

Daily Weather History Graph

Daily Weather History Graph

Search for Another Location

Airport:

Trip Planner

Search our weather history database for the weather conditions in past years. The results will help you decide how hot, cold, wet, or windy it might be!

Date:

Astronomy

Mar. 20, 2014 Rise Set
Actual Time 7:10 AM MDT 7:20 PM MDT
Civil Twilight 6:41 AM MDT 7:49 PM MDT
Nautical Twilight 6:07 AM MDT 8:23 PM MDT
Astronomical Twilight 5:32 AM MDT 8:59 PM MDT
Moon 11:54 PM MDT (3/20) 9:09 AM MDT (3/20)
Length of Visible Light 13h 07m
Length of Day
12h 09m
Waning Gibbous, 83% of the Moon is Illuminated
Mar 20
Waning Gibbous
Mar 23
Last Quarter
Mar 30
New
Apr 7
First Quarter
Apr 15
Full

Hourly Weather History & Observations

Time (MDT) Temp. Windchill Dew Point Humidity Pressure Visibility Wind Dir Wind Speed Gust Speed Precip Events Conditions
12:53 AM 35.1 °F 26.9 °F 17.1 °F 48% 29.92 in 10.0 mi WSW 11.5 mph - N/A   Clear
1:53 AM 34.0 °F - 16.0 °F 48% 29.91 in 10.0 mi Calm Calm - N/A   Clear
2:53 AM 36.0 °F 32.1 °F 16.0 °F 44% 29.90 in 10.0 mi West 4.6 mph - N/A   Clear
3:53 AM 37.9 °F - 17.1 °F 43% 29.89 in 10.0 mi North - - N/A   Clear
4:53 AM 34.0 °F 26.6 °F 17.1 °F 50% 29.89 in 10.0 mi WSW 9.2 mph - N/A   Clear
5:53 AM 39.0 °F 31.8 °F 16.0 °F 39% 29.85 in 10.0 mi SW 11.5 mph - N/A   Clear
6:53 AM 37.9 °F 30.5 °F 16.0 °F 41% 29.84 in 10.0 mi WSW 11.5 mph - N/A   Clear
7:53 AM 37.0 °F 31.6 °F 17.1 °F 44% 29.84 in 10.0 mi SSE 6.9 mph - N/A   Clear
8:53 AM 41.0 °F 37.1 °F 19.0 °F 41% 29.83 in 10.0 mi West 5.8 mph - N/A   Clear
9:53 AM 41.0 °F 38.0 °F 23.0 °F 49% 29.82 in 10.0 mi SW 4.6 mph - N/A   Clear
10:53 AM 46.9 °F - 19.9 °F 34% 29.79 in 10.0 mi SE 6.9 mph - N/A   Clear
11:53 AM 48.9 °F - 21.9 °F 35% 29.75 in 10.0 mi South 8.1 mph - N/A   Clear
12:53 PM 52.0 °F - 17.1 °F 25% 29.73 in 10.0 mi WSW 5.8 mph - N/A   Partly Cloudy
1:53 PM 48.9 °F - 28.0 °F 44% 29.78 in 10.0 mi NNW 25.3 mph 33.4 mph N/A   Scattered Clouds
2:53 PM 45.0 °F 37.4 °F 27.0 °F 49% 29.81 in 10.0 mi NW 18.4 mph 27.6 mph N/A   Overcast
3:53 PM 39.9 °F 29.7 °F 27.0 °F 60% 29.86 in 10.0 mi NNW 23.0 mph - N/A   Overcast
4:53 PM 36.0 °F 25.3 °F 27.0 °F 70% 29.92 in 10.0 mi NW 19.6 mph - N/A   Overcast
5:53 PM 35.1 °F 23.8 °F 26.1 °F 70% 29.92 in 10.0 mi NW 20.7 mph 31.1 mph N/A   Overcast
6:53 PM 36.0 °F 27.1 °F 23.0 °F 59% 29.94 in 10.0 mi NW 13.8 mph - N/A   Overcast
7:53 PM 37.0 °F 28.1 °F 17.1 °F 44% 29.96 in 10.0 mi WNW 15.0 mph - N/A   Overcast
8:53 PM 36.0 °F 26.0 °F 15.1 °F 43% 29.99 in 10.0 mi NW 17.3 mph - N/A   Overcast
9:53 PM 35.1 °F 27.9 °F 16.0 °F 46% 30.02 in 10.0 mi WNW 9.2 mph - N/A   Overcast
10:53 PM 35.1 °F 25.2 °F 14.0 °F 42% 30.03 in 10.0 mi NW 16.1 mph 23.0 mph N/A   Overcast
11:53 PM 33.1 °F 22.6 °F 15.1 °F 48% 30.04 in 10.0 mi NW 16.1 mph - N/A   Overcast